Charlevoix, MI

6:44 AM EDT on July 23, 2016 (GMT -0400)
Charlevoix Municipal

Weather History for KCVX - January, 2013

Change the Weather History Date:

Wednesday, January 23, 2013

  Actual Average Record
Temperature  
Mean Temperature 12 °F -  
Max Temperature 15 °F 28 °F 46 °F (2002)
Min Temperature 10 °F 14 °F -14 °F (2011)
Degree Days  
Heating Degree Days 52    
Moisture  
Dew Point 5 °F    
Average Humidity 74    
Maximum Humidity 88    
Minimum Humidity 61    
Precipitation  
Precipitation 0.00 in - - ()
Sea Level Pressure  
Sea Level Pressure 30.11 in    
Wind  
Wind Speed 14 mph (West)    
Max Wind Speed 20 mph    
Max Gust Speed 26 mph    
Visibility 4 miles    
Events Snow    
Averages and records for this station are not official NWS values.
T = Trace of Precipitation, MM = Missing Value Source: NWS Daily Summary

Daily Weather History Graph

Daily Weather History Graph

Search for Another Location

Airport or City:

Trip Planner

Search our weather history database for the weather conditions in past years. The results will help you decide how hot, cold, wet, or windy it might be!

Date:

Astronomy

Jan. 23, 2013 Rise Set
Actual Time 8:10 AM EST 5:35 PM EST
Civil Twilight 7:38 AM EST 6:08 PM EST
Nautical Twilight 7:02 AM EST 6:44 PM EST
Astronomical Twilight 6:27 AM EST 7:19 PM EST
Moon 2:43 PM EST 5:23 AM EST
Length of Visible Light 10h 29m
Length of Day
9h 25m
Waxing Gibbous, 89% of the Moon is Illuminated
Jan 23
Waxing Gibbous
Jan 26
Full
Feb 3
Last Quarter
Feb 10
New
Feb 17
First Quarter

Hourly Weather History & Observations

Time (EST) Temp. Windchill Dew Point Humidity Pressure Visibility Wind Dir Wind Speed Gust Speed Precip Events Conditions
12:14 AM 10.0 °F -3.7 °F -1.1 °F 61% 30.19 in 10.0 mi WNW 10.4 mph - N/A   Overcast
12:35 AM 10.2 °F -5.7 °F 0.5 °F 65% 30.19 in 7.0 mi West 13.8 mph 21.9 mph N/A   Overcast
12:54 AM 10.2 °F -6.9 °F 0.3 °F 64% 30.18 in 10.0 mi West 16.1 mph 21.9 mph N/A   Overcast
1:15 AM 10.2 °F -7.4 °F 0.7 °F 65% 30.18 in 7.0 mi West 17.3 mph 23.0 mph N/A   Overcast
1:34 AM 10.4 °F -7.7 °F 1.4 °F 67% 30.18 in 7.0 mi West 18.4 mph 26.5 mph N/A   Overcast
1:55 AM 10.4 °F -7.2 °F 1.6 °F 68% 30.18 in 7.0 mi West 17.3 mph 23.0 mph N/A   Overcast
2:15 AM 10.8 °F -4.3 °F 2.7 °F 70% 30.18 in 7.0 mi West 12.7 mph - N/A   Overcast
2:35 AM 10.9 °F -4.7 °F 2.8 °F 70% 30.17 in 4.0 mi West 13.8 mph 23.0 mph N/A   Haze
2:55 AM 10.9 °F -5.9 °F 3.4 °F 72% 30.17 in 4.0 mi West 16.1 mph - N/A Snow Light Snow
3:15 AM 11.1 °F -6.7 °F 2.1 °F 67% 30.17 in 5.0 mi West 18.4 mph 23.0 mph N/A   Haze
3:35 AM 11.3 °F -4.9 °F 1.8 °F 66% 30.16 in 7.0 mi West 15.0 mph - N/A   Overcast
3:55 AM 11.3 °F -4.9 °F 2.8 °F 69% 30.15 in 5.0 mi WSW 15.0 mph - N/A Snow Light Snow
4:15 AM 11.3 °F -6.5 °F 0.5 °F 62% 30.14 in 7.0 mi West 18.4 mph - N/A   Overcast
4:35 AM 11.7 °F -6.0 °F 1.4 °F 63% 30.14 in 7.0 mi West 18.4 mph 23.0 mph N/A   Overcast
4:55 AM 11.5 °F -2.7 °F 4.1 °F 72% 30.14 in 3.0 mi WSW 11.5 mph 18.4 mph N/A Snow Light Snow
5:15 AM 11.8 °F -3.6 °F 2.8 °F 67% 30.13 in 7.0 mi WSW 13.8 mph 18.4 mph N/A   Overcast
5:35 AM 11.5 °F -5.8 °F 5.2 °F 76% 30.13 in 2.0 mi West 17.3 mph 25.3 mph N/A Snow Light Snow
5:55 AM 11.7 °F -5.0 °F 6.4 °F 80% 30.12 in 1.2 mi WSW 16.1 mph 25.3 mph N/A Snow Light Snow
6:15 AM 11.3 °F -5.5 °F 6.8 °F 82% 30.12 in 1.2 mi WSW 16.1 mph 23.0 mph N/A Snow Light Snow
6:35 AM 11.3 °F -5.5 °F 5.0 °F 76% 30.12 in 1.5 mi West 16.1 mph 23.0 mph N/A Snow Light Snow
6:55 AM 11.3 °F -6.0 °F 5.5 °F 78% 30.12 in 1.2 mi West 17.3 mph 26.5 mph N/A Snow Light Snow
7:15 AM 11.3 °F -4.9 °F 5.4 °F 77% 30.12 in 2.0 mi West 15.0 mph 20.7 mph N/A Snow Light Snow
7:35 AM 11.1 °F -7.2 °F 5.2 °F 77% 30.12 in 1.5 mi West 19.6 mph 24.2 mph N/A Snow Light Snow
7:54 AM 11.1 °F -4.5 °F 3.9 °F 73% 30.11 in 3.0 mi West 13.8 mph - N/A Snow Light Snow
8:14 AM 11.1 °F -4.5 °F 5.7 °F 79% 30.10 in 2.0 mi West 13.8 mph 18.4 mph N/A Snow Light Snow
8:35 AM 11.3 °F -2.9 °F 3.7 °F 72% 30.10 in 3.0 mi West 11.5 mph 18.4 mph N/A Snow Light Snow
8:55 AM 11.3 °F -5.5 °F 4.5 °F 74% 30.10 in 4.0 mi West 16.1 mph 20.7 mph N/A   Haze
9:15 AM 11.7 °F -4.4 °F 3.9 °F 71% 30.10 in 4.0 mi West 15.0 mph 20.7 mph N/A   Haze
9:35 AM 11.7 °F -5.0 °F 6.4 °F 80% 30.09 in 1.5 mi WSW 16.1 mph - N/A Snow Light Snow
9:54 AM 11.7 °F -4.4 °F 5.4 °F 76% 30.10 in 2.5 mi West 15.0 mph - N/A Snow Light Snow
10:15 AM 11.7 °F -3.8 °F 5.2 °F 75% 30.10 in 1.2 mi West 13.8 mph 24.2 mph N/A Snow Light Snow
10:34 AM 11.8 °F -3.6 °F 4.6 °F 73% 30.09 in 1.8 mi West 13.8 mph - N/A Snow Light Snow
10:55 AM 12.2 °F -4.8 °F 6.1 °F 76% 30.10 in 2.5 mi West 17.3 mph - N/A Snow Light Snow
11:15 AM 12.7 °F -3.0 °F 5.9 °F 74% 30.10 in 4.0 mi West 15.0 mph - N/A   Haze
11:34 AM 12.7 °F -2.5 °F 5.9 °F 74% 30.09 in 2.0 mi West 13.8 mph 20.7 mph N/A Snow Light Snow
11:55 AM 12.6 °F -3.3 °F 7.3 °F 80% 30.09 in 1.0 mi West 15.0 mph 21.9 mph N/A Snow Light Snow
12:15 PM 13.1 °F -2.6 °F 7.0 °F 77% 30.08 in 1.8 mi West 15.0 mph 21.9 mph N/A Snow Light Snow
12:35 PM 13.8 °F -0.5 °F 4.1 °F 65% 30.07 in 7.0 mi WSW 12.7 mph - N/A   Overcast
12:55 PM 13.6 °F -1.9 °F 4.6 °F 67% 30.06 in 5.0 mi West 15.0 mph 23.0 mph N/A   Haze
1:15 PM 14.0 °F -2.5 °F 4.8 °F 67% 30.05 in 10.0 mi West 17.3 mph 20.7 mph N/A   Overcast
1:35 PM 13.3 °F -2.9 °F 7.3 °F 77% 30.04 in 1.0 mi West 16.1 mph - N/A Snow Light Snow
1:55 PM 13.1 °F -2.0 °F 7.5 °F 78% 30.03 in 1.2 mi West 13.8 mph 21.9 mph N/A Snow Light Snow
2:15 PM 13.8 °F -0.5 °F 6.4 °F 72% 30.02 in 3.0 mi West 12.7 mph - N/A Snow Light Snow
2:35 PM 13.6 °F 0.7 °F 7.7 °F 77% 30.02 in 2.0 mi West 10.4 mph - N/A Snow Light Snow
2:55 PM 13.5 °F -1.5 °F 7.3 °F 77% 30.02 in 1.8 mi West 13.8 mph - N/A Snow Light Snow
3:15 PM 13.8 °F -1.7 °F 7.9 °F 77% 30.02 in 2.5 mi West 15.0 mph 18.4 mph N/A Snow Light Snow
3:35 PM 13.1 °F 2.8 °F 9.3 °F 85% 30.02 in 0.8 mi WSW 6.9 mph - N/A Snow Light Snow
3:55 PM 13.5 °F -2.1 °F 8.4 °F 80% 30.02 in 0.8 mi West 15.0 mph - N/A Snow Light Snow
4:14 PM 13.6 °F -1.9 °F 7.9 °F 78% 30.02 in 2.0 mi West 15.0 mph 20.7 mph N/A Snow Light Snow
4:35 PM 13.8 °F -1.1 °F 8.4 °F 79% 30.02 in 2.0 mi West 13.8 mph - N/A Snow Light Snow
4:55 PM 13.8 °F -1.1 °F 7.7 °F 77% 30.02 in 2.5 mi West 13.8 mph - N/A Snow Light Snow
5:15 PM 13.8 °F 1.0 °F 8.8 °F 80% 30.03 in 1.8 mi WNW 10.4 mph - N/A Snow Light Snow
5:35 PM 13.8 °F 1.0 °F 8.4 °F 79% 30.04 in 1.2 mi WNW 10.4 mph - N/A Snow Light Snow
5:55 PM 13.8 °F -1.1 °F 8.8 °F 80% 30.04 in 0.8 mi NW 13.8 mph 19.6 mph N/A Snow Light Snow
6:14 PM 14.0 °F 0.5 °F 8.2 °F 78% 30.05 in 2.5 mi WNW 11.5 mph - N/A Snow Light Snow
6:35 PM 13.8 °F -1.1 °F 8.8 °F 80% 30.05 in 2.0 mi NNW 13.8 mph 19.6 mph N/A Snow Light Snow
6:54 PM 13.8 °F 0.2 °F 6.1 °F 71% 30.06 in 5.0 mi NNW 11.5 mph - N/A   Haze
7:15 PM 14.0 °F -0.2 °F 5.9 °F 70% 30.07 in 7.0 mi NNW 12.7 mph 19.6 mph N/A   Overcast
7:34 PM 14.0 °F -0.2 °F 4.1 °F 65% 30.08 in 10.0 mi NNW 12.7 mph 16.1 mph N/A   Overcast
7:55 PM 14.0 °F -0.2 °F 4.8 °F 67% 30.09 in 10.0 mi NNW 12.7 mph 16.1 mph N/A   Overcast
8:14 PM 14.2 °F -0.6 °F 6.1 °F 70% 30.09 in 7.0 mi NNW 13.8 mph 20.7 mph N/A   Overcast
8:35 PM 14.5 °F 4.6 °F 6.4 °F 70% 30.10 in 5.0 mi North 6.9 mph 19.6 mph N/A Snow Light Snow
8:55 PM 14.9 °F 0.9 °F 6.1 °F 68% 30.10 in 5.0 mi North 12.7 mph 19.6 mph N/A Snow Light Snow
9:14 PM 15.3 °F 3.5 °F 7.5 °F 71% 30.12 in 5.0 mi North 9.2 mph 18.4 mph N/A Snow Light Snow
9:35 PM 15.3 °F 0.8 °F 7.7 °F 72% 30.12 in 2.5 mi North 13.8 mph 17.3 mph N/A Snow Light Snow
9:54 PM 12.7 °F 1.4 °F 9.7 °F 88% 30.14 in 0.2 mi East 8.1 mph - N/A Snow Heavy Snow
10:14 PM 12.2 °F 1.7 °F 9.3 °F 88% 30.16 in 0.8 mi East 6.9 mph - N/A Snow Snow
10:35 PM 12.0 °F 2.7 °F 8.8 °F 87% 30.17 in 2.0 mi East 5.8 mph - N/A Snow Light Snow
10:54 PM 11.5 °F 2.1 °F 6.1 °F 79% 30.18 in 10.0 mi East 5.8 mph - N/A   Overcast
11:15 PM 10.6 °F -0.2 °F 4.6 °F 77% 30.19 in 10.0 mi ENE 6.9 mph - N/A   Overcast
11:34 PM 11.1 °F -1.6 °F 5.5 °F 78% 30.21 in 10.0 mi ENE 9.2 mph - N/A   Overcast
11:55 PM 10.8 °F 1.2 °F 5.7 °F 80% 30.23 in 10.0 mi ENE 5.8 mph - N/A   Overcast